Regional Weather Roundup
Issued by NWS

Home | Current Version | Previous Version | Graphics & Text | Print | Product List | Glossary On
Versions: 1 2 3 4 5 6 7 8 9 10 11 12 13 14 15 16 17 18 19 20 21 22 23 24 25 26 27 28 29 30 31 32 33 34 35 36 37 38 39 40 41 42 43 44 45 46 47 48 49 50
000
ASUS43 KDMX 241406
RWRIA

WEATHER ROUNDUP FOR IOWA
NATIONAL WEATHER SERVICE DES MOINES IA
900 AM CDT MON JUL 24 2017

NOTE: "FAIR" INDICATES FEW OR NO CLOUDS BELOW 12,000 FEET WITH NO
SIGNIFICANT WEATHER AND/OR OBSTRUCTIONS TO VISIBILITY.

* - THESE STATIONS ARE NOT NWS STATIONS...THUS NOT UNDER NWS
QUALITY CONTROL.  THEY ALSO DO NOT REPORT WEATHER SUCH
AS PRECIPITATION OR FOG.

IAZ001>003-012>014-020>022-031>034-043>046-241500-
   NORTHWEST IOWA

CITY           SKY/WX    TMP DP  RH WIND       PRES   REMARKS
CARROLL *      SUNNY     66  63  88 E5        30.06S
CHEROKEE *     SUNNY     68  63  86 S3        30.06R
DENISON *      SUNNY     68  63  83 E5        30.07S
ORANGE CITY *  SUNNY     66  63  88 S5        30.06R
SHELDON *      SUNNY     66  63  88 S7        30.05R
SIOUX CITY     SUNNY     67  62  84 SE6       30.05R
SPENCER        SUNNY     67  59  75 SE9       30.06F
STORM LAKE *   SUNNY     66  61  82 VRB5      30.07S
$$

IAZ055>058-069>071-079>083-090>094-241500-
   SOUTHWEST IOWA

CITY           SKY/WX    TMP DP  RH WIND       PRES   REMARKS
ATLANTIC *     SUNNY     68  63  83 E6        30.05S
AUDUBON *      SUNNY     68  63  83 CALM      30.07S
CLARINDA *     SUNNY     70  64  83 E5        30.07S
COUNCIL BLFS * MOSUNNY   68  64  88 E7        30.05S
CRESTON *      SUNNY     70  63  78 E7        30.07S
HARLAN  *      SUNNY     68  66  94 E5        30.08F
LAMONI         SUNNY     71  63  75 E7        30.05R
RED OAK *      SUNNY     70  64  83 E5        30.05S
SHENANDOAH *   SUNNY     70  64  83 MISG      30.05S
$$

IAZ047>049-059>061-072>074-084-241500-
   CENTRAL IOWA

CITY           SKY/WX    TMP DP  RH WIND       PRES   REMARKS
AMES           SUNNY     68  63  84 N5        30.05S
ANKENY *       SUNNY     68  63  83 VRB5      30.06S
BOONE *        SUNNY     66  61  82 VRB5      30.06R
CHARITON *     SUNNY     68  63  83 VRB5      30.04S
DES MOINES     MOSUNNY   71  61  70 NE3       30.04R
GRINNELL*      SUNNY     66  62  86 NE6       30.06R
KNOXVILLE *    SUNNY     68  61  77 VRB3      30.04R
MARSHALLTOWN   MOSUNNY   66  62  87 NE5       30.05R
NEWTON *       SUNNY     66  61  82 NE7       30.05R
PELLA *        SUNNY     69  61  76 CALM      30.06R
$$

IAZ004>006-015-016-023>025-035-036-241500-
   NORTH CENTRAL IOWA

CITY           SKY/WX    TMP DP  RH WIND       PRES   REMARKS
ALGONA *       SUNNY     66  61  82 E5        30.08R
CLARION *      SUNNY     66  63  88 E8        30.07S
ESTHERVILLE    SUNNY     64  62  93 E6        30.06S
FORT DODGE *   SUNNY     66  59  77 E7        30.08S
MASON CITY     SUNNY     65  60  84 E6        30.09S
FOREST CITY *    N/A     64  59  82 E7        30.08R
WEBSTER CITY * SUNNY     66  61  82 E6        30.05R
IOWA FALLS *     N/A     65  61  84 NE7       30.07S
$$

IAZ007>011-017>019-026>030-037>042-050>054-066-241500-
   NORTHEAST IOWA

CITY           SKY/WX    TMP DP  RH WIND       PRES   REMARKS
CEDAR RAPIDS   PTSUNNY   67  65  93 NE9       30.04R
CHARLES CITY * MOSUNNY   64  61  88 E9        30.08R
DECORAH *      PTSUNNY   63  59  88 E9G15     30.07R
DUBUQUE        CLOUDY    65  59  81 NE9       30.06R
MONTICELLO *   CLOUDY    64  61  88 E5G12     30.05R
OELWEIN *        N/A    N/A N/A N/A MISG        N/A
WATERLOO       PTSUNNY   66  60  81 E7        30.05R
$$

IAZ064-065-067-068-078-241500-
   EAST CENTRAL IOWA

CITY           SKY/WX    TMP DP  RH WIND       PRES   REMARKS
DAVENPORT      CLOUDY    68  64  87 E10       30.04R
IOWA CITY      CLOUDY    71  64  78 NE7       30.04R
MT. PLEASANT * MOSUNNY   70  63  80 NE3       30.03R
MUSCATINE *    CLOUDY    70  64  83 E6        30.03R
QUAD CITIES    CLOUDY    70  63  78 E9        30.02R
$$

IAZ062-063-075>077-085>089-095>099-241500-
   SOUTHEAST IOWA

CITY           SKY/WX    TMP DP  RH WIND       PRES   REMARKS
BURLINGTON     MOSUNNY   71  66  84 NE8       30.01R
FAIRFIELD *    SUNNY     68  63  83 CALM      30.03R
FORT MADISON * SUNNY     70  66  88 N3        30.02R
KEOKUK *       SUNNY     72  64  78 N5        30.01R
OSKALOOSA *      N/A     68  62  80 E3        30.04R
CENTERVILLE *    N/A     72  63  73 CALM      30.05S
OTTUMWA        SUNNY     70  63  78 E5        30.02S
WASHINGTON *   PTSUNNY   68  66  94 E5        30.04R
$$

ABBREVIATIONS USED IN REMARKS
   TC - TEMPERATURES IN CELSIUS
  WCI - WIND CHILL INDEX
   HX - HEAT INDEX
  VSB - VISIBILITY
$$




USA.gov is the U.S. government's official web portal to all federal, state and local government web resources and services.